QPF
0.05 0.06 0.05 0.06 0.05 0.06 0.08 0.11 0.16 0.21 0.24 0.23 0.18 0.13 0.10 0.07 0.07 0.07 0.05 0.05 0.08 0.08 0.08 0.10 0.11 0.13 0.15 0.16 0.19 0.22 0.22 0.23 0.19 0.13 0.07 0.07 0.09 0.08 0.05 0.03 0.01 0.01 0.00
0.11 0.11 0.11 0.11 0.09 0.10 0.13 0.17 0.20 0.22 0.24 0.25 0.17 0.13 0.11 0.13 0.10 0.07 0.05 0.05 0.06 0.06 0.06 0.07 0.09 0.14 0.14 0.14 0.15 0.15 0.17 0.18 0.17 0.14 0.10 0.08 0.08 0.10 0.11 0.09 0.06 0.03 0.03
0.17 0.18 0.17 0.13 0.11 0.16 0.22 0.22 0.21 0.24 0.21 0.19 0.17 0.15 0.14 0.12 0.11 0.09 0.07 0.05 0.05 0.04 0.04 0.05 0.07 0.09 0.10 0.12 0.13 0.13 0.12 0.11 0.11 0.09 0.08 0.06 0.05 0.06 0.10 0.12 0.11 0.09 0.06
0.23 0.23 0.19 0.15 0.18 0.20 0.19 0.18 0.20 0.21 0.22 0.23 0.23 0.20 0.16 0.15 0.10 0.08 0.07 0.06 0.06 0.04 0.04 0.04 0.05 0.06 0.08 0.11 0.13 0.13 0.10 0.08 0.06 0.06 0.06 0.05 0.05 0.04 0.05 0.07 0.10 0.12 0.09
0.28 0.28 0.24 0.20 0.21 0.19 0.15 0.13 0.16 0.16 0.18 0.19 0.17 0.17 0.16 0.13 0.09 0.07 0.06 0.04 0.04 0.03 0.03 0.03 0.03 0.03 0.05 0.09 0.13 0.13 0.12 0.09 0.07 0.06 0.07 0.07 0.06 0.04 0.02 0.03 0.05 0.08 0.09
0.32 0.30 0.26 0.23 0.19 0.16 0.12 0.11 0.12 0.12 0.12 0.11 0.08 0.09 0.10 0.08 0.07 0.05 0.04 0.03 0.02 0.01 0.01 0.03 0.05 0.02 0.02 0.04 0.07 0.08 0.10 0.10 0.08 0.07 0.07 0.06 0.06 0.04 0.03 0.02 0.02 0.03 0.05
0.35 0.33 0.28 0.22 0.17 0.14 0.11 0.08 0.08 0.07 0.06 0.06 0.06 0.06 0.04 0.04 0.04 0.03 0.02 0.02 0.00 0.00 0.00 0.02 0.03 0.04 0.03 0.01 0.02 0.03 0.06 0.09 0.08 0.07 0.06 0.06 0.07 0.05 0.03 0.03 0.02 0.01 0.02
0.32 0.32 0.27 0.21 0.17 0.14 0.11 0.07 0.06 0.05 0.04 0.03 0.03 0.03 0.03 0.02 0.02 0.01 0.01 0.00 0.00 0.00 0.00 0.00 0.01 0.02 0.02 0.03 0.01 0.01 0.03 0.05 0.07 0.07 0.06 0.05 0.05 0.05 0.04 0.03 0.03 0.02 0.02
0.22 0.26 0.24 0.19 0.16 0.13 0.10 0.08 0.07 0.06 0.04 0.03 0.02 0.01 0.01 0.01 0.01 0.00 0.00 0.00 0.00 0.00 0.00 0.00 0.00 0.00 0.01 0.01 0.02 0.01 0.01 0.02 0.05 0.07 0.07 0.04 0.03 0.02 0.02 0.02 0.02 0.02 0.02
0.13 0.15 0.16 0.15 0.13 0.12 0.12 0.08 0.07 0.06 0.05 0.03 0.02 0.02 0.01 0.01 0.00 0.00 0.00 0.00 0.00 0.00 0.00 0.00 0.00 0.00 0.01 0.01 0.01 0.01 0.00 0.00 0.01 0.04 0.05 0.05 0.02 0.01 0.01 0.02 0.03 0.03 0.03
0.07 0.09 0.10 0.12 0.12 0.11 0.11 0.10 0.08 0.06 0.05 0.03 0.02 0.02 0.01 0.01 0.00 0.00 0.00 0.00 0.00 0.00 0.00 0.00 0.00 0.00 0.00 0.01 0.02 0.01 0.01 0.00 0.00 0.01 0.02 0.03 0.03 0.02 0.03 0.03 0.04 0.07 0.07
0.04 0.06 0.07 0.09 0.11 0.12 0.12 0.11 0.08 0.06 0.04 0.04 0.03 0.02 0.01 0.01 0.01 0.00 0.00 0.00 0.00 0.00 0.00 0.00 0.00 0.00 0.01 0.01 0.01 0.01 0.01 0.01 0.01 0.01 0.01 0.02 0.04 0.04 0.03 0.04 0.06 0.08 0.10
0.02 0.03 0.04 0.05 0.07 0.09 0.12 0.12 0.11 0.08 0.07 0.06 0.04 0.03 0.02 0.00 0.00 0.00 0.00 0.00 0.00 0.00 0.00 0.00 0.00 0.00 0.00 0.01 0.01 0.01 0.01 0.02 0.02 0.02 0.02 0.02 0.04 0.06 0.06 0.05 0.07 0.09 0.10
0.00 0.01 0.02 0.03 0.04 0.05 0.08 0.11 0.13 0.12 0.11 0.09 0.06 0.05 0.03 0.01 0.01 0.00 0.00 0.00 0.00 0.00 0.00 0.01 0.01 0.01 0.00 0.00 0.01 0.01 0.01 0.01 0.02 0.02 0.02 0.03 0.04 0.05 0.05 0.06 0.07 0.08 0.08
0.00 0.00 0.00 0.01 0.03 0.04 0.06 0.09 0.12 0.14 0.14 0.14 0.13 0.10 0.07 0.04 0.02 0.01 0.01 0.00 0.00 0.01 0.00 0.01 0.01 0.01 0.01 0.00 0.00 0.01 0.01 0.02 0.02 0.02 0.03 0.03 0.03 0.04 0.05 0.05 0.06 0.06 0.07
0.00 0.00 0.00 0.00 0.01 0.02 0.04 0.06 0.09 0.14 0.16 0.18 0.20 0.18 0.13 0.09 0.05 0.03 0.01 0.01 0.00 0.01 0.01 0.01 0.02 0.01 0.01 0.00 0.01 0.01 0.01 0.01 0.03 0.04 0.04 0.04 0.03 0.03 0.03 0.03 0.04 0.05 0.05
0.00 0.00 0.00 0.00 0.00 0.00 0.01 0.03 0.06 0.09 0.14 0.19 0.23 0.24 0.20 0.15 0.11 0.07 0.04 0.02 0.01 0.01 0.01 0.01 0.02 0.01 0.01 0.01 0.01 0.01 0.01 0.01 0.02 0.03 0.03 0.04 0.03 0.02 0.02 0.02 0.02 0.02 0.03
0.00 0.00 0.00 0.00 0.00 0.00 0.00 0.01 0.03 0.06 0.10 0.16 0.21 0.25 0.28 0.26 0.18 0.12 0.08 0.04 0.02 0.02 0.02 0.02 0.02 0.02 0.02 0.02 0.01 0.01 0.00 0.00 0.01 0.01 0.02 0.02 0.02 0.02 0.01 0.01 0.01 0.01 0.02
0.00 0.00 0.00 0.00 0.00 0.00 0.00 0.00 0.01 0.02 0.05 0.10 0.18 0.24 0.28 0.30 0.29 0.21 0.13 0.08 0.06 0.04 0.03 0.03 0.03 0.03 0.02 0.02 0.01 0.01 0.00 0.00 0.00 0.00 0.01 0.01 0.01 0.01 0.01 0.01 0.00 0.00 0.00
0.01 0.01 0.00 0.00 0.00 0.00 0.00 0.00 0.00 0.00 0.01 0.03 0.09 0.18 0.27 0.33 0.34 0.31 0.25 0.17 0.11 0.08 0.05 0.04 0.03 0.04 0.02 0.02 0.01 0.01 0.01 0.01 0.00 0.00 0.00 0.00 0.00 0.00 0.00 0.00 0.00 0.00 0.00
0.01 0.01 0.01 0.01 0.01 0.00 0.00 0.00 0.00 0.00 0.00 0.01 0.03 0.08 0.17 0.27 0.35 0.38 0.33 0.26 0.20 0.12 0.08 0.06 0.04 0.04 0.02 0.02 0.02 0.01 0.01 0.01 0.01 0.00 0.00 0.00 0.00 0.00 0.00 0.00 0.00 0.00 0.00
0.02 0.03 0.02 0.02 0.02 0.01 0.00 0.00 0.00 0.00 0.01 0.01 0.01 0.03 0.06 0.14 0.24 0.34 0.38 0.34 0.28 0.21 0.15 0.08 0.05 0.04 0.03 0.01 0.01 0.01 0.00 0.00 0.01 0.01 0.00 0.00 0.00 0.00 0.00 0.00 0.00 0.00 0.00
0.05 0.05 0.05 0.05 0.04 0.03 0.01 0.01 0.00 0.01 0.01 0.01 0.01 0.01 0.02 0.05 0.10 0.19 0.31 0.38 0.33 0.24 0.17 0.14 0.10 0.07 0.05 0.02 0.01 0.00 0.01 0.01 0.01 0.00 0.00 0.00 0.00 0.00 0.00 0.00 0.00 0.00 0.00
0.08 0.08 0.08 0.07 0.07 0.05 0.03 0.01 0.01 0.01 0.01 0.02 0.02 0.01 0.01 0.02 0.04 0.08 0.16 0.28 0.33 0.28 0.19 0.11 0.09 0.10 0.10 0.07 0.03 0.02 0.01 0.01 0.02 0.01 0.00 0.00 0.01 0.00 0.00 0.00 0.00 0.00 0.00
0.09 0.10 0.10 0.09 0.09 0.08 0.05 0.02 0.01 0.02 0.02 0.02 0.02 0.01 0.01 0.01 0.02 0.04 0.08 0.14 0.22 0.28 0.24 0.17 0.11 0.09 0.09 0.07 0.05 0.03 0.03 0.03 0.03 0.02 0.01 0.00 0.00 0.00 0.01 0.00 0.00 0.00 0.00
0.10 0.11 0.11 0.10 0.09 0.08 0.06 0.03 0.02 0.03 0.03 0.03 0.03 0.02 0.01 0.01 0.01 0.01 0.04 0.08 0.13 0.17 0.20 0.19 0.14 0.08 0.06 0.05 0.04 0.03 0.03 0.03 0.03 0.03 0.01 0.00 0.00 0.00 0.00 0.00 0.01 0.00 0.00
MSLP
1011.26 1011.26 1011.29 1011.35 1011.47 1011.65 1011.90 1012.21 1012.55 1012.87 1013.16 1013.36 1013.48 1013.52 1013.50 1013.47 1013.46 1013.52 1013.67 1013.90 1014.21 1014.58 1014.95 1015.32 1015.65 1015.94 1016.19 1016.42 1016.66 1016.91 1017.21 1017.55 1017.93 1018.33 1018.75 1019.16 1019.56 1019.93 1020.28 1020.61 1020.92 1021.21 1021.50
1010.85 1010.78 1010.74 1010.74 1010.81 1010.95 1011.18 1011.48 1011.83 1012.18 1012.49 1012.74 1012.90 1012.97 1012.97 1012.94 1012.91 1012.94 1013.05 1013.26 1013.55 1013.90 1014.29 1014.68 1015.05 1015.37 1015.65 1015.91 1016.15 1016.40 1016.69 1017.01 1017.37 1017.77 1018.18 1018.60 1019.01 1019.40 1019.77 1020.12 1020.45 1020.78 1021.10
1010.55 1010.40 1010.29 1010.23 1010.25 1010.35 1010.56 1010.85 1011.19 1011.56 1011.91 1012.19 1012.38 1012.47 1012.47 1012.43 1012.38 1012.36 1012.42 1012.58 1012.83 1013.16 1013.55 1013.95 1014.34 1014.70 1015.02 1015.30 1015.56 1015.83 1016.11 1016.42 1016.77 1017.15 1017.55 1017.96 1018.37 1018.76 1019.14 1019.49 1019.85 1020.20 1020.55
1010.32 1010.11 1009.94 1009.83 1009.80 1009.87 1010.05 1010.32 1010.67 1011.05 1011.41 1011.71 1011.91 1012.02 1012.02 1011.96 1011.87 1011.80 1011.80 1011.90 1012.09 1012.39 1012.75 1013.15 1013.55 1013.94 1014.29 1014.60 1014.88 1015.16 1015.45 1015.77 1016.11 1016.48 1016.87 1017.27 1017.67 1018.05 1018.42 1018.78 1019.14 1019.51 1019.89
1010.16 1009.90 1009.69 1009.54 1009.48 1009.52 1009.67 1009.93 1010.26 1010.63 1010.99 1011.29 1011.50 1011.61 1011.61 1011.53 1011.41 1011.29 1011.23 1011.26 1011.40 1011.63 1011.95 1012.32 1012.72 1013.10 1013.47 1013.80 1014.11 1014.42 1014.72 1015.05 1015.40 1015.78 1016.17 1016.56 1016.94 1017.31 1017.67 1018.03 1018.39 1018.77 1019.17
1010.05 1009.78 1009.55 1009.39 1009.31 1009.32 1009.44 1009.66 1009.96 1010.30 1010.64 1010.93 1011.14 1011.24 1011.24 1011.15 1011.01 1010.86 1010.75 1010.72 1010.79 1010.96 1011.22 1011.54 1011.90 1012.26 1012.62 1012.96 1013.28 1013.61 1013.94 1014.29 1014.66 1015.05 1015.45 1015.84 1016.23 1016.59 1016.95 1017.30 1017.66 1018.04 1018.45
1010.00 1009.74 1009.52 1009.36 1009.27 1009.27 1009.36 1009.53 1009.78 1010.07 1010.36 1010.62 1010.80 1010.90 1010.90 1010.81 1010.67 1010.51 1010.38 1010.31 1010.33 1010.43 1010.62 1010.87 1011.17 1011.49 1011.81 1012.13 1012.46 1012.79 1013.14 1013.51 1013.91 1014.32 1014.74 1015.15 1015.54 1015.91 1016.27 1016.62 1016.97 1017.35 1017.76
1010.01 1009.78 1009.59 1009.45 1009.37 1009.35 1009.40 1009.52 1009.70 1009.91 1010.14 1010.34 1010.49 1010.58 1010.58 1010.51 1010.39 1010.25 1010.12 1010.04 1010.02 1010.07 1010.20 1010.38 1010.60 1010.85 1011.12 1011.40 1011.70 1012.02 1012.37 1012.76 1013.17 1013.61 1014.05 1014.48 1014.90 1015.28 1015.65 1016.00 1016.35 1016.72 1017.12
1010.07 1009.89 1009.74 1009.64 1009.56 1009.53 1009.54 1009.60 1009.69 1009.82 1009.96 1010.10 1010.21 1010.27 1010.28 1010.24 1010.16 1010.06 1009.96 1009.89 1009.86 1009.88 1009.96 1010.07 1010.22 1010.40 1010.60 1010.82 1011.07 1011.36 1011.70 1012.08 1012.50 1012.95 1013.41 1013.86 1014.29 1014.69 1015.07 1015.43 1015.79 1016.15 1016.53
1010.16 1010.03 1009.94 1009.86 1009.81 1009.76 1009.73 1009.72 1009.73 1009.76 1009.81 1009.88 1009.93 1009.97 1009.99 1009.98 1009.94 1009.90 1009.85 1009.82 1009.81 1009.83 1009.87 1009.94 1010.03 1010.14 1010.27 1010.42 1010.62 1010.86 1011.16 1011.51 1011.92 1012.36 1012.82 1013.28 1013.72 1014.14 1014.52 1014.89 1015.25 1015.61 1015.97
1010.24 1010.16 1010.11 1010.07 1010.02 1009.97 1009.90 1009.83 1009.76 1009.71 1009.68 1009.67 1009.67 1009.68 1009.70 1009.72 1009.73 1009.74 1009.75 1009.77 1009.79 1009.83 1009.87 1009.92 1009.98 1010.04 1010.11 1010.22 1010.35 1010.54 1010.79 1011.10 1011.46 1011.87 1012.31 1012.75 1013.19 1013.61 1014.00 1014.38 1014.74 1015.09 1015.45
1010.26 1010.21 1010.19 1010.18 1010.14 1010.08 1009.99 1009.87 1009.75 1009.63 1009.53 1009.46 1009.42 1009.40 1009.41 1009.44 1009.48 1009.54 1009.60 1009.67 1009.74 1009.81 1009.88 1009.94 1010.00 1010.05 1010.10 1010.16 1010.26 1010.40 1010.59 1010.84 1011.15 1011.51 1011.91 1012.31 1012.73 1013.13 1013.52 1013.89 1014.25 1014.60 1014.95
1010.17 1010.14 1010.14 1010.13 1010.11 1010.04 1009.94 1009.81 1009.66 1009.50 1009.36 1009.25 1009.17 1009.13 1009.12 1009.15 1009.20 1009.28 1009.37 1009.48 1009.60 1009.72 1009.83 1009.93 1010.02 1010.09 1010.15 1010.22 1010.30 1010.41 1010.56 1010.76 1011.01 1011.30 1011.63 1011.99 1012.36 1012.73 1013.10 1013.46 1013.81 1014.16 1014.50
1009.96 1009.92 1009.91 1009.90 1009.88 1009.82 1009.73 1009.61 1009.46 1009.30 1009.15 1009.03 1008.93 1008.86 1008.83 1008.84 1008.88 1008.95 1009.06 1009.18 1009.33 1009.50 1009.66 1009.83 1009.98 1010.11 1010.23 1010.33 1010.43 1010.54 1010.67 1010.83 1011.03 1011.26 1011.52 1011.82 1012.13 1012.46 1012.79 1013.13 1013.47 1013.80 1014.14
1009.61 1009.54 1009.51 1009.49 1009.46 1009.42 1009.35 1009.25 1009.14 1009.02 1008.89 1008.77 1008.67 1008.59 1008.54 1008.52 1008.52 1008.57 1008.66 1008.78 1008.95 1009.15 1009.37 1009.61 1009.84 1010.07 1010.27 1010.45 1010.61 1010.76 1010.90 1011.04 1011.20 1011.38 1011.59 1011.82 1012.07 1012.35 1012.64 1012.95 1013.26 1013.58 1013.90
1009.14 1009.02 1008.94 1008.90 1008.87 1008.84 1008.81 1008.76 1008.70 1008.63 1008.56 1008.48 1008.39 1008.31 1008.24 1008.18 1008.15 1008.15 1008.20 1008.31 1008.48 1008.70 1008.98 1009.29 1009.62 1009.95 1010.26 1010.55 1010.80 1011.01 1011.20 1011.36 1011.51 1011.66 1011.82 1012.00 1012.21 1012.43 1012.68 1012.96 1013.24 1013.54 1013.85
1008.57 1008.39 1008.27 1008.19 1008.15 1008.13 1008.13 1008.14 1008.15 1008.15 1008.14 1008.11 1008.06 1008.00 1007.92 1007.83 1007.76 1007.72 1007.73 1007.81 1007.97 1008.21 1008.52 1008.91 1009.33 1009.77 1010.20 1010.60 1010.96 1011.27 1011.52 1011.73 1011.90 1012.05 1012.20 1012.35 1012.52 1012.71 1012.93 1013.17 1013.44 1013.71 1014.00
1007.94 1007.70 1007.52 1007.41 1007.35 1007.34 1007.37 1007.43 1007.50 1007.57 1007.63 1007.66 1007.66 1007.62 1007.55 1007.46 1007.37 1007.30 1007.28 1007.34 1007.49 1007.73 1008.08 1008.51 1009.01 1009.55 1010.09 1010.60 1011.07 1011.48 1011.82 1012.09 1012.31 1012.49 1012.65 1012.81 1012.97 1013.15 1013.35 1013.58 1013.82 1014.08 1014.36
1007.27 1006.97 1006.74 1006.59 1006.51 1006.49 1006.54 1006.63 1006.75 1006.88 1007.00 1007.10 1007.16 1007.17 1007.13 1007.06 1006.98 1006.91 1006.88 1006.93 1007.07 1007.33 1007.69 1008.16 1008.71 1009.32 1009.94 1010.54 1011.11 1011.61 1012.04 1012.39 1012.68 1012.92 1013.12 1013.31 1013.49 1013.68 1013.89 1014.12 1014.36 1014.62 1014.89
1006.56 1006.22 1005.95 1005.76 1005.65 1005.63 1005.68 1005.78 1005.93 1006.11 1006.28 1006.43 1006.55 1006.62 1006.64 1006.63 1006.59 1006.55 1006.54 1006.61 1006.76 1007.02 1007.39 1007.87 1008.45 1009.09 1009.76 1010.42 1011.05 1011.63 1012.14 1012.58 1012.95 1013.26 1013.53 1013.77 1014.01 1014.24 1014.48 1014.73 1015.00 1015.27 1015.54
1005.83 1005.45 1005.15 1004.93 1004.81 1004.76 1004.80 1004.91 1005.07 1005.26 1005.47 1005.68 1005.86 1006.00 1006.10 1006.16 1006.19 1006.22 1006.27 1006.37 1006.54 1006.81 1007.18 1007.66 1008.23 1008.87 1009.54 1010.23 1010.90 1011.53 1012.10 1012.61 1013.06 1013.46 1013.81 1014.13 1014.44 1014.74 1015.04 1015.34 1015.64 1015.94 1016.24
1005.06 1004.67 1004.36 1004.13 1003.99 1003.93 1003.94 1004.04 1004.19 1004.39 1004.63 1004.87 1005.11 1005.33 1005.52 1005.68 1005.80 1005.92 1006.04 1006.19 1006.40 1006.67 1007.04 1007.49 1008.03 1008.64 1009.30 1009.97 1010.65 1011.30 1011.92 1012.49 1013.02 1013.50 1013.94 1014.35 1014.75 1015.13 1015.50 1015.87 1016.22 1016.56 1016.89
1004.30 1003.91 1003.60 1003.37 1003.22 1003.15 1003.15 1003.22 1003.36 1003.56 1003.81 1004.08 1004.38 1004.67 1004.94 1005.20 1005.43 1005.64 1005.84 1006.05 1006.29 1006.58 1006.93 1007.35 1007.84 1008.39 1009.00 1009.64 1010.30 1010.96 1011.61 1012.23 1012.82 1013.38 1013.90 1014.41 1014.90 1015.36 1015.81 1016.25 1016.66 1017.06 1017.43
1003.56 1003.19 1002.90 1002.68 1002.54 1002.46 1002.46 1002.52 1002.64 1002.83 1003.08 1003.38 1003.71 1004.06 1004.41 1004.75 1005.07 1005.37 1005.64 1005.91 1006.18 1006.47 1006.80 1007.17 1007.61 1008.11 1008.66 1009.26 1009.89 1010.54 1011.20 1011.86 1012.50 1013.12 1013.73 1014.31 1014.88 1015.42 1015.94 1016.44 1016.91 1017.35 1017.77
1002.89 1002.55 1002.29 1002.11 1001.98 1001.92 1001.92 1001.97 1002.09 1002.27 1002.51 1002.82 1003.17 1003.55 1003.95 1004.35 1004.74 1005.09 1005.42 1005.72 1006.01 1006.29 1006.60 1006.94 1007.32 1007.76 1008.27 1008.82 1009.43 1010.08 1010.75 1011.43 1012.11 1012.79 1013.45 1014.09 1014.71 1015.30 1015.87 1016.41 1016.93 1017.41 1017.85
1002.33 1002.03 1001.82 1001.67 1001.58 1001.55 1001.56 1001.61 1001.73 1001.90 1002.13 1002.42 1002.77 1003.16 1003.57 1004.00 1004.40 1004.79 1005.14 1005.45 1005.74 1006.02 1006.30 1006.61 1006.96 1007.37 1007.84 1008.37 1008.97 1009.61 1010.30 1011.00 1011.71 1012.42 1013.11 1013.77 1014.42 1015.03 1015.62 1016.18 1016.71 1017.21 1017.68
Thickness
5750 5749 5747 5745 5745 5746 5745 5744 5744 5743 5741 5740 5740 5740 5741 5741 5741 5741 5740 5737 5735 5734 5733 5733 5733 5732 5731 5731 5730 5728 5726 5725 5724 5723 5723 5723 5723 5723 5722 5721 5721 5720 5719
5742 5741 5740 5739 5739 5740 5742 5742 5742 5740 5739 5739 5739 5739 5740 5739 5739 5739 5739 5738 5735 5734 5733 5733 5732 5732 5731 5731 5730 5729 5727 5726 5725 5724 5724 5723 5723 5723 5723 5722 5721 5720 5719
5736 5734 5733 5734 5735 5735 5735 5736 5737 5736 5736 5737 5737 5738 5738 5738 5738 5738 5738 5738 5738 5735 5734 5733 5732 5731 5731 5731 5730 5729 5728 5727 5726 5725 5725 5724 5724 5724 5723 5723 5722 5721 5720
5728 5727 5727 5729 5730 5730 5731 5732 5732 5731 5732 5732 5733 5735 5736 5737 5737 5737 5737 5736 5737 5737 5736 5734 5733 5732 5731 5731 5730 5729 5728 5727 5727 5726 5725 5725 5724 5724 5724 5723 5723 5722 5721
5724 5722 5722 5722 5723 5724 5727 5728 5730 5728 5728 5728 5730 5731 5733 5734 5736 5737 5737 5738 5738 5737 5737 5737 5734 5733 5733 5732 5731 5730 5729 5728 5728 5727 5726 5725 5724 5724 5724 5724 5723 5722 5722
5718 5716 5714 5715 5716 5718 5721 5723 5723 5723 5724 5725 5727 5731 5731 5733 5734 5736 5737 5739 5739 5739 5739 5739 5736 5735 5734 5733 5732 5732 5731 5730 5729 5728 5727 5725 5724 5723 5723 5723 5722 5722 5721
5712 5709 5708 5708 5709 5711 5715 5719 5719 5718 5719 5721 5720 5721 5727 5731 5733 5734 5736 5737 5740 5739 5739 5739 5737 5738 5739 5735 5734 5734 5733 5732 5731 5729 5728 5726 5724 5723 5722 5722 5721 5721 5720
5703 5704 5701 5701 5702 5703 5708 5712 5711 5711 5715 5716 5714 5714 5717 5723 5727 5733 5734 5734 5736 5739 5738 5738 5738 5737 5738 5740 5739 5736 5734 5733 5732 5730 5728 5727 5725 5723 5722 5721 5720 5720 5719
5692 5693 5693 5694 5696 5699 5701 5703 5705 5703 5704 5709 5712 5712 5712 5715 5726 5729 5730 5732 5733 5735 5737 5739 5738 5738 5737 5739 5740 5738 5736 5734 5732 5730 5729 5727 5726 5724 5723 5721 5720 5719 5718
5682 5683 5684 5687 5690 5693 5694 5696 5699 5699 5697 5700 5705 5707 5712 5716 5714 5720 5722 5727 5728 5728 5733 5736 5737 5738 5737 5738 5738 5737 5735 5734 5732 5731 5729 5728 5726 5724 5723 5721 5719 5718 5717
5672 5673 5674 5676 5679 5682 5684 5687 5689 5690 5692 5695 5699 5702 5704 5705 5707 5709 5715 5719 5722 5727 5729 5730 5733 5735 5736 5736 5736 5736 5734 5732 5731 5730 5729 5728 5726 5724 5722 5719 5718 5716 5715
5661 5662 5663 5664 5666 5669 5672 5675 5678 5681 5684 5688 5693 5697 5699 5701 5703 5706 5708 5711 5716 5723 5725 5727 5729 5731 5732 5733 5732 5730 5730 5729 5728 5728 5727 5726 5724 5722 5720 5718 5716 5715 5714
5649 5649 5650 5651 5654 5657 5660 5662 5667 5672 5676 5679 5683 5688 5694 5699 5703 5705 5706 5709 5712 5717 5718 5722 5725 5726 5727 5727 5727 5725 5725 5725 5725 5724 5723 5722 5721 5719 5717 5715 5714 5712 5711
5637 5637 5637 5638 5641 5644 5648 5651 5655 5660 5666 5670 5675 5679 5684 5692 5697 5699 5701 5703 5703 5708 5712 5717 5719 5720 5721 5721 5720 5720 5722 5721 5721 5721 5719 5718 5716 5714 5713 5711 5710 5709 5707
5625 5626 5626 5627 5629 5631 5634 5638 5642 5647 5652 5659 5665 5669 5674 5682 5688 5693 5696 5699 5699 5700 5706 5709 5712 5713 5715 5715 5714 5717 5717 5714 5715 5715 5713 5712 5711 5709 5708 5706 5705 5704 5702
5612 5612 5613 5615 5616 5619 5622 5624 5629 5634 5639 5645 5651 5658 5664 5671 5678 5683 5688 5692 5695 5697 5702 5708 5708 5709 5709 5710 5708 5709 5708 5707 5707 5707 5706 5705 5703 5702 5702 5700 5699 5698 5697
5600 5600 5601 5602 5604 5607 5610 5613 5617 5621 5626 5631 5637 5645 5653 5659 5665 5673 5678 5683 5688 5691 5692 5699 5701 5702 5701 5703 5702 5702 5703 5702 5699 5698 5697 5697 5695 5695 5694 5693 5692 5691 5690
5586 5586 5588 5589 5591 5594 5597 5600 5604 5609 5613 5619 5625 5630 5638 5646 5653 5660 5667 5673 5679 5684 5686 5688 5692 5694 5694 5695 5695 5695 5695 5694 5692 5689 5688 5687 5686 5686 5686 5685 5685 5684 5683
5569 5569 5571 5573 5576 5579 5583 5586 5590 5595 5601 5607 5613 5619 5625 5631 5639 5648 5655 5663 5670 5675 5678 5682 5685 5688 5687 5687 5686 5686 5686 5685 5684 5681 5679 5678 5677 5677 5677 5677 5676 5676 5675
5551 5551 5553 5556 5560 5563 5568 5573 5577 5582 5587 5593 5600 5606 5613 5618 5626 5634 5643 5651 5658 5664 5669 5673 5678 5680 5679 5678 5679 5678 5676 5676 5676 5675 5672 5670 5668 5668 5667 5667 5667 5667 5666
5533 5533 5535 5539 5543 5548 5554 5560 5564 5569 5573 5579 5586 5594 5601 5607 5614 5620 5628 5637 5645 5652 5659 5664 5669 5672 5673 5671 5672 5672 5670 5668 5666 5668 5667 5666 5665 5663 5660 5657 5657 5657 5657
5517 5516 5517 5521 5527 5534 5540 5543 5548 5555 5562 5567 5574 5581 5589 5595 5601 5607 5614 5623 5632 5641 5649 5655 5662 5666 5669 5670 5670 5667 5664 5663 5660 5659 5662 5660 5661 5659 5656 5651 5647 5647 5647
5503 5502 5503 5506 5510 5516 5521 5526 5530 5540 5549 5557 5564 5570 5579 5588 5591 5598 5604 5610 5619 5628 5636 5645 5653 5660 5663 5666 5666 5662 5662 5664 5661 5656 5655 5652 5652 5650 5645 5639 5638 5637 5637
5493 5492 5493 5495 5498 5503 5506 5511 5517 5526 5538 5547 5554 5560 5567 5575 5583 5589 5597 5604 5612 5620 5628 5635 5644 5651 5657 5660 5661 5660 5658 5654 5649 5648 5649 5645 5643 5641 5636 5630 5627 5628 5628
5487 5485 5486 5488 5491 5494 5496 5500 5505 5519 5529 5539 5547 5554 5560 5567 5573 5578 5587 5597 5606 5614 5619 5625 5632 5639 5645 5649 5653 5652 5648 5646 5641 5638 5641 5641 5636 5633 5629 5624 5619 5619 5618
5484 5482 5483 5485 5487 5490 5490 5493 5497 5512 5524 5534 5541 5549 5552 5559 5563 5566 5576 5587 5597 5606 5613 5618 5622 5628 5635 5640 5645 5648 5648 5646 5641 5634 5635 5637 5633 5632 5625 5620 5617 5613 5611